{"data":{"norad_id":61539,"intl_designator":"2024-184H","name":"STARLINK-11332 [DTC]","alt_names":[],"object_type":"PAYLOAD","status":"ACTIVE","operator":null,"country":"US","launch_date":"2024-10-15","launch_site_code":"AFWTR","launch_vehicle":null,"mission":null,"orbit_class":"UNKNOWN","rcs_meters":null,"size_class":null,"mass_kg":null,"dimensions":null,"purposes":["comms"],"wikipedia_slug":null,"has_3d_model":false,"image_url":null,"decayed_at":null,"tle_current":{"epoch":"2026-05-24T21:57:57.860064Z","epoch_age_seconds":76398,"freshness":"FRESH","line1":"1 61539U 24184H   26144.91525301  .00000591  00000+0  97378-5 0  9999","line2":"2 61539  53.1591 220.2064 0001066  64.5028 295.6100 15.69708278 92393","mean_motion":15.69708278,"eccentricity":0.0001066,"inclination_deg":53.1591,"raan_deg":220.2064,"arg_perigee_deg":64.5028,"mean_anomaly_deg":295.61,"bstar":9.7378e-6,"rev_number":9239,"period_min":91.736790853568,"perigee_km":359.01342132805,"apogee_km":360.44993493023,"semimajor_km":6737.8686781291,"source":"CELESTRAK","updated_at":"2026-05-25T13:38:19.398433Z"}}}